[TLELIST] Archives

 

[list_settings.list_name] Current TLEs

July 28th 2010 PST

HST 1 20580U 90037B 10208.60750253 .00000451 00000-0 21657-4 0 6108 2 20580 028.4703 335.9821 0003267 269.4552 090.5718 15.01003764910831 ISS (ZARYA) 1 25544U 98067A 10209.24597222 .00000889 00000-0 11576-4 0 5989 2 25544 051.6447 020.4626 0007537 156.6638 191.2187 15.71316127669921 CXO 1 25867U 99040B 10208.70833333 -.00000494 00000-0 10000-3 0 4932 2 25867 067.3340 051.4925 8228778 275.3535 356.0485 00.37803975 6549 ____________________________________________________________________ These 2-Line ...Continue Reading

[list_settings.list_name] Current TLEs

July 27th 2010 PST

HST 1 20580U 90037B 10205.74837589 .00000391 00000-0 17060-4 0 6092 2 20580 028.4703 354.6421 0003268 239.0610 120.9688 15.01001869910405 ISS (ZARYA) 1 25544U 98067A 10208.49321880 .00006684 00000-0 56049-4 0 5938 2 25544 051.6465 024.3112 0007697 150.5042 256.4834 15.71341502669819 CXO 1 25867U 99040B 10208.70833333 -.00000494 00000-0 10000-3 0 4932 2 25867 067.3340 051.4925 8228778 275.3535 356.0485 00.37803975 6549 ____________________________________________________________________ These 2-Line ...Continue Reading

[list_settings.list_name] Current TLEs

July 26th 2010 PST

HST 1 20580U 90037B 10205.74837589 .00000391 00000-0 17060-4 0 6092 2 20580 028.4703 354.6421 0003268 239.0610 120.9688 15.01001869910405 ISS (ZARYA) 1 25544U 98067A 10207.48252260 .00007699 00000-0 63855-4 0 5874 2 25544 051.6461 029.4806 0008104 149.8761 295.9727 15.71330953669653 CXO 1 25867U 99040B 10206.08333333 -.00000642 00000-0 10000-3 0 4920 2 25867 067.3215 051.5962 8225982 275.3449 358.7418 00.37802991 6531 ____________________________________________________________________ These 2-Line ...Continue Reading

[list_settings.list_name] Current TLEs

July 25th 2010 PST

HST 1 20580U 90037B 10205.74837589 .00000391 00000-0 17060-4 0 6092 2 20580 028.4703 354.6421 0003268 239.0610 120.9688 15.01001869910405 ISS (ZARYA) 1 25544U 98067A 10206.52024338 .00008026 00000-0 66410-4 0 5821 2 25544 051.6461 034.4046 0007974 145.0690 253.7352 15.71315803669505 CXO 1 25867U 99040B 10206.08333333 -.00000642 00000-0 10000-3 0 4920 2 25867 067.3215 051.5962 8225982 275.3449 358.7418 00.37802991 6531 ____________________________________________________________________ These 2-Line ...Continue Reading

[list_settings.list_name] Current TLEs

July 24th 2010 PST

HST 1 20580U 90037B 10204.88398835 .00000367 00000-0 15227-4 0 6087 2 20580 028.4704 000.2857 0003323 229.4034 130.6265 15.01001296910276 ISS (ZARYA) 1 25544U 98067A 10205.51077370 .00008250 00000-0 68169-4 0 5746 2 25544 051.6463 039.5630 0008286 142.6029 302.0973 15.71300324669349 CXO 1 25867U 99040B 10206.08333333 -.00000642 00000-0 10000-3 0 4920 2 25867 067.3215 051.5962 8225982 275.3449 358.7418 00.37802991 6531 ____________________________________________________________________ These 2-Line ...Continue Reading

[list_settings.list_name] Current TLEs

July 23rd 2010 PST

HST 1 20580U 90037B 10203.15521287 .00000367 00000-0 15227-4 0 6074 2 20580 028.4704 011.5685 0003323 211.0255 149.0127 15.01000605910018 ISS (ZARYA) 1 25544U 98067A 10204.49173862 .00008020 00000-0 66455-4 0 5678 2 25544 051.6457 044.7743 0008329 138.4840 298.0129 15.71281202669189 CXO 1 25867U 99040B 10203.45833333 -.00000780 00000-0 10000-3 0 4915 2 25867 067.3117 051.7142 8222995 275.3287 001.4281 00.37805763 6524 ____________________________________________________________________ These 2-Line ...Continue Reading

[list_settings.list_name] Current TLEs

July 22nd 2010 PST

HST 1 20580U 90037B 10203.15521287 .00000367 00000-0 15227-4 0 6074 2 20580 028.4704 011.5685 0003323 211.0255 149.0127 15.01000605910018 ISS (ZARYA) 1 25544U 98067A 10202.77872757 .00008101 00000-0 67152-4 0 5570 2 25544 051.6453 053.5350 0008441 132.9580 327.2751 15.71251923668915 CXO 1 25867U 99040B 10203.45833333 -.00000780 00000-0 10000-3 0 4915 2 25867 067.3117 051.7142 8222995 275.3287 001.4281 00.37805763 6524 ____________________________________________________________________ These 2-Line ...Continue Reading

[list_settings.list_name] Current TLEs

July 21st 2010 PST

HST 1 20580U 90037B 10200.56205169 .00000395 00000-0 17404-4 0 6052 2 20580 028.4706 028.5027 0003601 185.5876 174.4774 15.00999814909624 ISS (ZARYA) 1 25544U 98067A 10201.69224130 .00008172 00000-0 67752-4 0 5514 2 25544 051.6461 059.0911 0008449 128.5315 301.8888 15.71233245668740 CXO 1 25867U 99040B 10200.79166667 -.00000730 00000-0 10000-3 0 4902 2 25867 067.2995 051.8521 8217412 275.3081 358.4574 00.37806756 6511 ____________________________________________________________________ These 2-Line ...Continue Reading

[list_settings.list_name] Current TLEs

July 20th 2010 PST

HST 1 20580U 90037B 10200.56205169 .00000395 00000-0 17404-4 0 6052 2 20580 028.4706 028.5027 0003601 185.5876 174.4774 15.00999814909624 ISS (ZARYA) 1 25544U 98067A 10201.43617628 .00008275 00000-0 68553-4 0 5495 2 25544 051.6466 060.4003 0008475 127.8385 293.1958 15.71229309668704 CXO 1 25867U 99040B 10200.79166667 -.00000730 00000-0 10000-3 0 4902 2 25867 067.2995 051.8521 8217412 275.3081 358.4574 00.37806756 6511 ____________________________________________________________________ These 2-Line ...Continue Reading

[list_settings.list_name] Current TLEs

July 19th 2010 PST

HST 1 20580U 90037B 10197.03800626 .00000364 00000-0 15054-4 0 6042 2 20580 028.4700 051.5109 0003573 148.6995 211.3827 15.00998052909099 ISS (ZARYA) 1 25544U 98067A 10200.40572917 .00008456 00000-0 69999-4 0 5432 2 25544 051.6469 065.6690 0008487 124.0397 224.4634 15.71211556668535 CXO 1 25867U 99040B 10200.79166667 -.00000730 00000-0 10000-3 0 4902 2 25867 067.2995 051.8521 8217412 275.3081 358.4574 00.37806756 6511 ____________________________________________________________________ These 2-Line ...Continue Reading
  • This mailing list is a public mailing list - anyone may join or leave, at any time.
  • This mailing list is announce-only.

International Space Station (ISS) / Hubble Space Telescope (HST) / Chandra X-Ray Observatory Orbital Data via EMAIL

Privacy Policy:

Private list